Retour au catalogue

STARLINK-37454

ActifCommunicationsVLEO
NORAD 69375·PAYLOAD·🇺🇸 United States

Lancé Jun 4, 2026 depuis Cape Canaveral Space Force Station

Loading…

Prochains Passages (prochaines 24 heures)

TLE

FraisSource: CelesTrak SupGP

Époque: Sep 15, 2026, 03:46 UTC

1 69375C 26123Y   26258.15743056  .00013203  00000+0  39017-3 0  2587
2 69375  53.1591 167.0411 0001318  85.8125 316.4857 15.34378071    12

Suivez STARLINK-37454 en temps réel avec AllMySat

Download on the App Store